Weather past 2 weeks in Bantam, Cocos Islands

Now
82 °F

Passing clouds.


Feels Like: 91 °F
Forecast: 83 / 88 °F
Wind: 18 mph from Northeast

Location: Cocos Island Airport


UV Index: 5 (Moderate)

Visibility: N/A


Pressure: 29.77 "Hg

Humidity: 84%

Dew point: 77 °F

Location of BantamLocation

Historic Weather in Bantam

°F

Bantam temperature yesterday

Maximum temperature yesterday: 82 °F (at 3:30 AM)
Minimum temperature yesterday: 77 °F (at 11:00 AM)
Average temperature yesterday: 79 °F

Past Weeks' High & Low Weather Summary

 TemperatureHumidityPressure
High90 °F (Apr 13, 11:30 AM)100% (Apr 16, 2:00 PM)29.95 "Hg (Apr 16, 2:00 PM)
Low77 °F (Apr 7, 2:00 AM)59% (Apr 9, 12:30 PM)29.71 "Hg (Apr 17, 4:26 AM)
Average84 °F78%29.84 "Hg
* Reported Apr 2 6:30 PM — Apr 17 6:30 PM, Bantam, Weather by CustomWeather, © 2014

Note: Actual official high and low records may vary slightly from our data, if they occured in-between our weather recording intervals... More about our weather records

Advertising

Historic Weather Conditions — Data for Previous 24 hours

 ConditionsComfort  
Time TempWeatherWind HumidityBarometerVisibility
6:30 PM
Apr 17
82 °FScattered clouds.18 mph84%29.77 "HgN/A
6:00 PM82 °FSunny.17 mph84%29.74 "HgN/A
5:30 PM81 °FLots of rain. Cloudy.15 mph94%29.74 "Hg2 mi
5:00 PM81 °FBroken clouds.14 mph89%29.74 "HgN/A
4:30 PM81 °FSprinkles. Broken clouds.17 mph89%29.74 "HgN/A
4:00 PM81 °FLight rain. More clouds than sun.20 mph89%29.74 "Hg2 mi
3:30 PM81 °FRain showers. Broken clouds.22 mph89%29.74 "Hg2 mi
3:00 PM81 °FRain showers. Broken clouds.24 mph89%29.74 "Hg4 mi
2:30 PM84 °FBroken clouds.22 mph79%29.74 "HgN/A
1:30 PM82 °FRain showers. Broken clouds.23 mph84%29.74 "Hg5 mi
1:00 PM82 °FRain showers. Broken clouds.18 mph89%29.74 "HgN/A
12:30 PM84 °FRain showers. Broken clouds.21 mph79%29.74 "Hg4 mi
12:00 PM84 °FScattered showers. Broken clouds.20 mph84%29.74 "HgN/A
11:30 AM84 °FBroken clouds.20 mph79%29.77 "HgN/A
11:00 AM84 °FBroken clouds.20 mph79%29.77 "HgN/A
10:30 AM84 °FPartly sunny.17 mph79%29.77 "HgN/A
10:00 AM82 °FScattered clouds.17 mph84%29.77 "HgN/A
9:30 AM84 °FBroken clouds.16 mph79%29.77 "HgN/A
9:00 AM82 °FBroken clouds.16 mph84%29.77 "HgN/A
8:30 AM82 °FOvercast.16 mph84%29.80 "HgN/A
8:00 AM81 °FSprinkles. More clouds than sun.18 mph89%29.77 "HgN/A
7:30 AM81 °FBroken clouds.15 mph84%29.77 "HgN/A
7:00 AM81 °FOvercast.13 mph84%29.74 "HgN/A
6:30 AM79 °FPartly cloudy.12 mph89%29.77 "HgN/A
6:00 AM79 °FScattered showers. Partly cloudy.16 mph89%29.74 "HgN/A
5:30 AM79 °FLight rain. Mostly cloudy.18 mph89%29.74 "HgN/A
5:00 AM79 °FLight rain. Overcast.22 mph94%29.71 "Hg3 mi
4:30 AM79 °FLight rain. Overcast.17 mph94%29.71 "HgN/A
4:26 AM79 °FLight rain. Mostly cloudy.17 mph94%29.71 "HgN/A
3:30 AM79 °FLight rain. Overcast.18 mph94%29.74 "Hg6 mi
3:23 AM79 °FDrizzle. Overcast.18 mph94%29.74 "HgN/A
2:35 AM79 °FLight rain. Passing clouds.13 mph89%29.74 "HgN/A
2:30 AM79 °FRain. Partly cloudy.13 mph89%29.74 "HgN/A
2:00 AM79 °FLight rain. Partly cloudy.17 mph89%29.74 "HgN/A
1:30 AM79 °FWarm.15 mph89%29.74 "HgN/A
1:00 AM79 °FPassing clouds.16 mph89%29.77 "HgN/A
12:30 AM79 °FPassing clouds.15 mph89%29.77 "HgN/A
12:00 AM79 °FSprinkles. Partly cloudy.10 mph89%29.80 "HgN/A
11:30 PM
Apr 16
77 °FSprinkles. Partly cloudy.13 mph94%29.80 "Hg6 mi
10:30 PM77 °FRain showers. Overcast.16 mph94%29.80 "Hg2 mi
10:00 PM79 °FSprinkles. Passing clouds.13 mph94%29.80 "HgN/A
9:30 PM79 °FDrizzle. Overcast.10 mph89%29.77 "HgN/A
9:00 PM81 °FPartly cloudy.10 mph84%29.80 "HgN/A
8:30 PM81 °FClear.14 mph89%29.77 "HgN/A
Weather by CustomWeather, © 2014

See weather overview